Погода в Гнездилово

Россия / Ивановская область     56°44′25″N   41°12′22″E
темп.,
°C
ветер,
м/с
пор.,
м/с
влажн.,
%
обл.,
%
осадки,
мм/ч
давл.,
гПа
погр.,
м
21 января, пт
пт2100:00−7ю61492100 0.1 1005596
03:00−9ю51392100 0.2 1005529
06:00−9ююв51294100 0.3 1004520
09:00−8ююв51295100 1.1 1004537
12:00−7ююв51394100 0.9 1003585
15:00−7ююв51294100 1.4 1003780
18:00−7ююв51294100 0.8 1003752
21:00−7юв51193100 1.2 1003575
22 января, сб
сб2200:00−7юв41195100 0.4 1004490
03:00−7юв41095100 1.4 1005498
06:00−8юв3996100 0.2 1006281
09:00−6юв41194100 0.3 1008539
12:00−6юв4994100 0.3 1011532
15:00−6юв3894100 0.5 1013495
18:00−7вюв3895100 0.3 1015403
21:00−8вюв379675 0.5 1017224
23 января, вс
вс2300:00−12вюв259897 0.1 101996
03:00−13вюв139876 0.1 102144
06:00−17вюв1110091 0.1 10239
09:00−16юв1199100 0.1 102613
12:00−10ю119483 0.1 1028125
15:00−9св009755 0.1 103010
18:00−17св1110081 0.0 10339
21:00−19с11100100 0.0 10359
24 января, пн
пн2400:00−20св11100100 0.0 10369
03:00−21всв11100100 0.1 10379
06:00−22всв11100100 0.0 10379
09:00−21ссв23100100 0.1 103840
12:00−11всв2497100 0.1 1037147
15:00−8всв249786 0.1 1035169
18:00−14св21100100 0.0 103511
21:00−16в11100100 0.1 103416
25 января, вт
вт2500:00−19вюв1110091 0.0 10339
03:00−20юв2210089 0.0 103119
06:00−17ююв2598100 0.0 103069
09:00−17ююв269877 0.0 102889
12:00−10ю3791100 0.0 1027222
15:00−8ююв279383 0.0 1026336
18:00−11ююв3996100 0.0 1025169
21:00−13ююв289898 0.0 1026139